| time (UTC) | temp F | wind direction | speed knots | gust knots | rain 1hr in | rain 24hr in | rain mn in | humidity % | barometer mb |
| 20260504204548 | 39 | 186 | 2.6 | 0.0 | 0.00 | 0.00 | 0.00 | 64 | 1008.9 |
| 20260504203044 | 39 | 205 | 2.6 | 0.0 | 0.00 | 0.00 | 0.00 | 63 | 1008.5 |
| 20260504201546 | 38 | 202 | 3.5 | 0.0 | 0.00 | 0.00 | 0.00 | 64 | 1009.1 |
| 20260504200050 | 38 | 202 | 3.5 | 0.0 | 0.00 | 0.00 | 0.00 | 64 | 1008.9 |
| 20260504194539 | 38 | 199 | 4.3 | 0.0 | 0.00 | 0.00 | 0.00 | 65 | 1009.0 |
| 20260504193043 | 41 | 203 | 2.6 | 0.0 | 0.00 | 0.00 | 0.00 | 60 | 1008.3 |
| 20260504191539 | 40 | 148 | 3.5 | 0.0 | 0.00 | 0.00 | 0.00 | 60 | 1008.4 |
| 20260504190037 | 40 | 212 | 2.6 | 0.0 | 0.00 | 0.00 | 0.00 | 58 | 1007.6 |
| 20260504184539 | 40 | 205 | 2.6 | 0.0 | 0.00 | 0.00 | 0.00 | 54 | 1007.8 |
| 20260504183037 | 41 | 203 | 2.6 | 0.0 | 0.00 | 0.00 | 0.00 | 58 | 1007.6 |
| 20260504181535 | 41 | 200 | 0.9 | 0.0 | 0.00 | 0.00 | 0.00 | 57 | 1007.6 |
| 20260504180035 | 40 | 133 | 1.7 | 0.0 | 0.00 | 0.00 | 0.00 | 56 | 1007.6 |
| 20260504174534 | 40 | 192 | 0.9 | 0.0 | 0.00 | 0.00 | 0.00 | 52 | 1007.2 |
| 20260504173034 | 41 | 203 | 0.9 | 0.0 | 0.00 | 0.00 | 0.00 | 53 | 1006.9 |
| 20260504171532 | 41 | 117 | 0.9 | 0.0 | 0.00 | 0.00 | 0.00 | 51 | 1007.0 |
| 20260504081544 | 34 | 137 | 0.9 | 0.0 | 0.00 | 0.00 | 0.00 | 87 | 1003.3 |
| 20260504050022 | 36 | 202 | 3.5 | 0.0 | 0.00 | 0.00 | 0.00 | 87 | 1002.9 |
| 20260504044520 | 36 | 171 | 3.5 | 0.0 | 0.00 | 0.00 | 0.00 | 85 | 1002.9 |
| 20260504043018 | 37 | 189 | 2.6 | 0.0 | 0.00 | 0.00 | 0.00 | 85 | 1002.8 |
| 20260504041515 | 37 | 168 | 2.6 | 0.0 | 0.00 | 0.00 | 0.00 | 85 | 1002.4 |
| 20260504040014 | 37 | 119 | 2.6 | 0.0 | 0.00 | 0.00 | 0.00 | 84 | 1002.7 |
| 20260504034511 | 38 | 217 | 1.7 | 0.0 | 0.00 | 0.00 | 0.00 | 84 | 1003.0 |
| 20260504033012 | 38 | 176 | 1.7 | 0.0 | 0.00 | 0.00 | 0.00 | 84 | 1002.6 |
| 20260504031511 | 38 | 213 | 3.5 | 0.0 | 0.00 | 0.00 | 0.00 | 83 | 1002.5 |
| 20260504030005 | 39 | 217 | 4.3 | 0.0 | 0.00 | 0.00 | 0.00 | 81 | 1002.6 |
| 20260504024502 | 40 | 172 | 4.3 | 0.0 | 0.00 | 0.00 | 0.00 | 80 | 1002.4 |
| 20260504023059 | 40 | 144 | 3.5 | 0.0 | 0.00 | 0.00 | 0.00 | 75 | 1002.0 |
| 20260504021557 | 41 | 172 | 1.7 | 0.0 | 0.00 | 0.00 | 0.00 | 75 | 1001.9 |
| 20260504020104 | 42 | 196 | 3.5 | 0.0 | 0.00 | 0.00 | 0.00 | 71 | 1001.8 |
| 20260504014550 | 44 | 124 | 1.7 | 0.0 | 0.00 | 0.00 | 0.00 | 68 | 1002.0 |
| 20260504013052 | 45 | 134 | 0.9 | 0.0 | 0.00 | 0.00 | 0.00 | 66 | 1001.8 |
| 20260504011544 | 47 | 208 | 2.6 | 0.0 | 0.00 | 0.00 | 0.00 | 62 | 1001.6 |
| 20260504010052 | 52 | 209 | 1.7 | 0.0 | 0.00 | 0.00 | 0.00 | 45 | 1000.6 |
| 20260504004545 | 51 | 169 | 1.7 | 0.0 | 0.00 | 0.00 | 0.00 | 43 | 1000.8 |
| 20260504003042 | 51 | 140 | 2.6 | 0.0 | 0.00 | 0.00 | 0.00 | 51 | 1001.1 |
| 20260504001541 | 50 | 226 | 3.5 | 0.0 | 0.00 | 0.00 | 0.00 | 54 | 1001.1 |
| 20260504000038 | 52 | 233 | 3.5 | 0.0 | 0.00 | 0.00 | 0.00 | 47 | 1000.3 |
| 20260503234541 | 55 | 134 | 0.9 | 0.0 | 0.00 | 0.00 | 0.00 | 41 | 1000.0 |
| 20260503233038 | 55 | 133 | 1.7 | 0.0 | 0.00 | 0.00 | 0.00 | 42 | 1000.2 |
| 20260503231537 | 53 | 147 | 2.6 | 0.0 | 0.00 | 0.00 | 0.00 | 47 | 1000.8 |
| 20260503230050 | 54 | 157 | 1.7 | 0.0 | 0.00 | 0.00 | 0.00 | 48 | 1000.9 |
| 20260503224535 | 53 | 199 | 2.6 | 0.0 | 0.00 | 0.00 | 0.00 | 43 | 1001.2 |
| 20260503223035 | 53 | 112 | 2.6 | 0.0 | 0.00 | 0.00 | 0.00 | 43 | 1001.5 |
| 20260503221538 | 53 | 247 | 1.7 | 0.0 | 0.00 | 0.00 | 0.00 | 44 | 1001.6 |
| 20260503220037 | 52 | 308 | 2.6 | 0.0 | 0.00 | 0.00 | 0.00 | 45 | 1001.6 |
| 20260503214546 | 54 | 226 | 2.6 | 0.0 | 0.00 | 0.00 | 0.00 | 43 | 1001.2 |
| 20260503213035 | 53 | 210 | 2.6 | 0.0 | 0.00 | 0.00 | 0.00 | 36 | 1001.5 |
| 20260503211532 | 54 | 270 | 3.5 | 0.0 | 0.00 | 0.00 | 0.00 | 34 | 1001.3 |
| 20260503210031 | 56 | 299 | 2.6 | 0.0 | 0.00 | 0.00 | 0.00 | 32 | 1000.9 |